Theta_e
272 273 273 273 273 273 273 273 273 273 273 272 272 272 272 272 272 272 273 273 272 272 272 272 272 272 272 272 271 271 271 271 271 271 271 271 271 271 270 270 270 270 270 270 270 270 270 269 269 269 270 270 269 269 269 269 269 269 269 268 268 268 267 267 267 267 267 267 267
272 272 272 273 273 272 272 272 272 272 272 272 272 272 272 272 272 272 272 272 272 272 272 272 272 272 271 271 271 271 271 270 270 270 271 270 270 270 270 270 270 270 270 269 269 269 269 269 269 269 269 269 269 269 269 269 269 269 268 267 268 267 267 267 267 267 267 267 267
271 271 271 272 271 271 271 271 271 271 271 271 272 272 272 272 272 272 272 272 271 271 271 271 271 271 271 271 271 271 270 270 270 270 270 270 270 270 270 270 269 269 269 269 269 269 269 269 269 269 269 269 268 268 268 269 269 268 267 267 267 267 267 267 267 267 267 267 267
271 271 271 271 270 270 270 271 270 270 270 271 271 271 271 272 272 272 271 271 271 271 271 271 271 271 271 270 270 270 270 270 270 270 270 270 269 269 269 269 269 269 269 269 269 269 268 268 268 268 268 268 268 268 268 268 268 268 267 267 267 267 267 267 267 267 267 267 267
270 270 270 270 270 270 270 270 270 270 270 271 271 271 271 271 271 271 271 271 270 270 271 270 270 270 270 270 270 270 270 270 270 270 269 269 269 269 269 269 269 269 269 269 268 268 268 268 268 268 268 268 268 268 268 268 267 267 267 267 267 267 267 267 267 267 267 267 267
269 270 270 270 270 270 270 270 270 270 270 270 270 270 270 271 271 270 270 270 270 270 270 270 270 270 270 270 269 269 269 269 269 269 269 269 269 269 268 268 268 268 268 268 268 268 268 268 268 268 268 268 268 268 268 268 267 267 267 267 267 267 267 266 267 267 267 266 266
269 269 269 269 270 270 270 270 270 270 270 270 270 269 269 270 270 269 269 269 270 270 270 270 270 270 269 269 269 269 269 269 269 268 268 268 268 268 268 268 268 268 268 268 268 268 268 268 268 268 268 268 268 268 267 267 267 266 266 266 266 266 266 266 266 266 266 266 266
269 269 269 269 269 269 269 269 269 269 269 270 269 269 269 269 269 269 269 269 269 269 269 270 269 269 269 268 268 268 268 268 268 268 268 268 268 268 268 268 268 267 267 268 268 268 268 268 268 267 267 267 267 267 267 267 266 266 266 265 266 266 266 266 266 266 266 266 266
268 269 269 269 269 269 269 269 269 269 269 269 269 269 269 269 269 269 269 269 269 269 269 269 269 268 268 268 268 268 268 268 268 267 267 267 267 267 267 267 267 267 267 268 268 268 268 268 267 267 267 267 267 267 266 266 266 265 265 265 265 266 266 266 266 266 266 266 265
268 268 268 268 268 269 269 269 269 268 268 268 268 269 269 270 269 269 268 269 269 269 268 268 268 268 268 268 268 267 267 267 267 267 267 267 267 267 267 267 267 267 267 268 268 268 267 267 267 267 267 267 266 266 266 266 266 265 265 265 265 265 265 266 266 266 266 266 266
267 268 268 268 268 268 268 268 268 268 268 268 268 268 268 269 268 268 269 269 268 268 268 268 268 268 267 267 267 267 267 267 267 267 267 267 267 267 267 267 267 267 267 267 268 267 267 267 266 266 266 266 266 266 266 266 265 265 265 265 265 265 265 265 266 266 266 266 266
267 267 268 268 268 268 268 268 268 268 268 268 268 268 268 268 268 268 268 268 268 267 268 268 268 267 267 267 267 267 267 267 267 267 267 266 266 266 266 267 267 267 267 267 267 267 267 266 266 266 266 266 266 266 265 265 265 265 265 265 265 265 265 265 266 266 266 266 266
267 267 267 267 268 268 267 267 267 267 267 267 267 267 268 268 268 268 268 267 267 267 267 267 267 267 267 267 267 267 267 267 266 266 266 266 266 266 266 267 267 267 267 267 267 267 267 266 266 266 265 265 265 265 265 265 265 265 264 265 265 265 265 265 266 266 267 267 267
267 267 267 267 267 267 267 267 267 267 267 267 267 267 267 267 268 268 268 267 267 267 267 267 267 267 267 267 267 267 266 266 266 266 266 266 266 266 266 267 267 267 267 267 267 267 266 266 266 265 265 265 265 265 265 265 265 265 265 265 265 265 265 266 266 267 267 267 267
267 267 267 267 267 267 267 267 267 267 267 267 267 267 267 267 268 268 268 267 267 267 267 267 267 267 267 267 267 266 266 266 266 266 266 266 266 266 267 267 267 267 267 267 267 267 266 266 266 266 265 265 265 265 265 265 265 265 265 265 265 266 266 267 267 267 268 268 268
266 266 266 266 266 266 266 266 267 267 267 267 267 267 267 267 267 268 267 267 267 267 267 266 266 266 266 267 267 266 266 266 266 266 266 266 266 266 267 267 267 267 267 266 266 266 266 266 266 266 265 265 265 265 265 265 265 266 266 266 266 267 267 267 268 268 268 268 268
266 266 266 266 266 266 266 266 266 267 267 267 267 267 267 267 267 267 267 267 267 266 266 266 266 266 266 266 266 266 266 266 266 266 266 266 266 266 266 266 267 267 266 266 266 266 266 266 266 266 266 265 265 265 266 266 266 266 267 267 267 268 268 269 269 269 269 269 269
266 266 266 266 266 266 266 266 266 266 266 266 267 267 267 267 267 267 267 267 266 266 265 265 266 266 266 265 266 266 266 266 266 266 266 266 266 266 267 267 267 267 267 266 266 266 266 266 266 266 266 266 266 266 266 266 267 267 268 268 268 269 269 269 269 269 269 269 269
265 265 265 265 265 266 266 266 266 266 266 266 267 267 267 267 266 266 266 266 266 266 265 265 265 265 265 265 265 266 266 266 266 266 266 266 266 266 266 266 267 267 266 266 266 266 266 266 266 266 266 266 266 266 267 267 268 268 268 269 269 269 269 269 269 270 269 269 269
265 265 265 265 265 266 266 266 266 266 266 266 266 266 266 266 266 266 266 266 266 266 266 266 265 265 265 265 265 266 266 266 266 266 266 266 266 266 266 266 266 266 266 266 266 266 266 266 266 266 266 266 267 267 268 268 269 269 269 269 269 269 270 270 270 270 270 270 270
265 265 265 265 265 266 266 266 266 266 266 266 266 266 266 266 266 265 265 266 266 266 266 266 265 265 265 265 265 265 266 266 266 266 266 266 266 266 266 266 266 266 266 266 266 266 266 266 266 266 267 267 268 268 268 269 269 269 269 270 270 270 270 270 270 270 270 270 270
265 265 265 266 266 266 266 266 266 266 266 266 266 266 265 265 265 265 265 265 266 266 266 265 265 265 265 265 265 265 266 266 266 266 266 266 266 266 266 266 266 266 266 266 266 266 266 266 267 267 268 268 268 269 269 270 270 270 270 270 270 270 270 270 270 270 270 270 269
265 265 265 266 266 266 266 266 266 266 266 265 265 265 265 265 265 265 265 265 265 265 265 265 265 265 265 265 265 265 265 265 265 265 266 266 265 266 266 266 266 266 266 266 265 266 266 267 267 268 269 269 269 270 270 270 270 270 270 270 270 270 270 270 270 269 269 269 269
265 265 265 266 265 265 266 266 265 265 265 265 265 265 264 264 264 264 264 265 265 265 265 265 265 265 265 265 265 265 265 265 265 265 265 265 265 265 266 266 266 266 266 266 266 267 268 268 269 269 270 270 270 270 270 270 270 270 270 270 270 269 269 269 269 269 269 269 269
265 265 265 265 265 265 265 265 265 265 264 264 264 264 264 264 264 264 264 264 264 264 265 265 265 265 265 265 265 265 265 265 265 265 265 265 265 265 265 266 266 266 266 266 269 270 271 271 271 271 270 270 270 270 270 271 271 270 270 270 269 269 269 268 268 269 269 269 269
265 265 265 265 265 265 265 265 264 264 264 264 264 263 263 263 263 264 264 264 264 264 264 265 265 265 266 265 265 265 265 265 265 265 264 264 265 265 265 266 266 266 266 267 270 271 273 274 274 273 272 271 271 271 271 271 271 271 270 269 269 268 268 268 268 268 268 269 269
264 264 264 265 264 264 264 264 264 264 263 263 263 263 263 263 263 263 263 263 264 264 264 264 265 265 266 265 265 264 264 265 265 265 264 264 264 265 265 266 266 266 267 268 271 272 273 274 275 274 273 272 271 271 271 271 271 270 269 269 268 268 268 267 268 268 268 268 269
264 264 264 264 264 264 264 264 263 263 263 263 262 262 263 263 263 263 263 263 263 264 264 264 265 265 265 265 265 264 264 264 264 264 265 265 265 265 265 265 265 266 267 270 272 273 273 274 275 275 275 273 272 272 271 271 270 269 269 268 268 268 268 268 268 268 268 268 268
264 264 264 263 263 263 263 263 263 262 262 262 262 262 262 262 262 262 263 263 263 263 264 264 265 265 265 264 264 264 264 264 264 265 265 265 265 265 265 265 265 267 269 271 272 273 274 274 275 275 276 275 274 272 272 271 269 269 268 268 268 268 268 268 268 268 268 268 269
263 263 263 263 263 263 263 262 262 262 262 262 262 262 261 262 262 262 262 262 263 263 264 265 265 264 264 264 264 264 264 264 264 264 264 265 265 265 265 266 266 266 268 271 272 273 274 274 275 275 276 276 274 273 271 270 269 268 268 268 268 268 268 268 268 268 268 269 269
263 263 263 263 263 263 262 262 262 262 261 261 261 261 261 261 261 262 262 262 263 264 264 264 264 264 264 264 264 264 264 264 264 264 264 265 265 265 265 265 265 266 268 271 272 273 274 274 275 276 276 277 274 272 270 269 268 268 268 268 268 268 269 269 269 269 269 269 269
263 263 262 262 262 262 262 261 261 261 260 260 260 260 260 261 261 262 262 263 263 264 264 264 263 263 263 264 264 264 264 264 264 264 265 265 265 265 265 266 266 267 269 272 273 274 274 275 275 276 276 277 274 272 270 269 269 269 269 269 269 269 269 269 269 269 269 269 270
262 262 262 262 262 262 261 261 260 260 260 259 260 260 260 260 261 262 262 263 263 263 263 263 263 263 263 263 263 263 264 264 264 264 265 265 265 265 265 266 266 267 270 272 273 274 274 275 275 276 276 276 274 271 269 269 269 269 269 269 269 269 269 269 270 270 270 270 270
262 262 262 262 262 261 260 259 259 259 259 259 259 259 260 260 261 261 262 263 263 263 263 263 263 263 263 263 263 263 263 264 264 265 265 265 265 265 265 265 266 268 271 272 273 274 274 275 275 276 276 275 273 271 269 269 269 269 269 269 269 270 270 270 270 270 270 271 271
262 261 261 261 261 260 259 258 258 258 258 258 258 259 259 260 261 261 262 263 264 263 263 263 263 263 263 264 263 263 263 264 264 264 265 265 265 265 265 265 266 268 271 272 273 273 274 275 275 276 276 275 272 270 270 269 269 269 269 269 269 270 270 270 271 271 271 271 271
261 261 261 260 259 259 258 258 258 258 258 258 258 259 259 260 261 261 262 263 263 263 263 263 263 263 263 263 263 263 264 264 264 265 265 265 265 265 265 265 265 267 270 272 273 273 274 274 275 276 275 274 271 270 270 270 270 269 269 269 270 270 270 271 271 271 271 271 271
261 260 260 259 258 258 257 257 257 257 257 258 258 259 260 260 261 261 262 263 262 262 262 263 263 263 263 263 263 263 264 265 265 265 265 265 265 265 265 265 265 267 269 271 272 273 274 274 275 275 275 272 271 270 270 270 270 270 269 269 270 270 271 271 271 271 271 271 271
261 260 259 258 257 257 257 257 257 257 257 258 259 259 260 260 261 261 262 262 262 262 262 262 262 262 263 263 263 264 264 265 265 265 265 265 265 265 265 265 265 266 268 271 272 273 273 274 275 275 274 272 271 270 270 270 270 269 269 270 270 270 271 271 271 271 271 271 271
260 259 258 257 257 257 257 256 257 257 257 258 259 259 260 260 261 262 262 262 262 262 262 262 262 262 263 263 264 264 265 265 265 265 265 264 265 265 265 265 265 266 267 270 272 273 273 274 274 275 274 272 271 270 270 270 270 269 269 270 270 270 271 271 271 271 271 271 271
259 258 258 256 256 256 256 256 257 257 258 259 259 259 260 260 261 262 262 262 262 262 262 262 262 263 263 264 264 264 265 265 265 265 265 265 265 265 265 265 265 265 267 270 271 273 273 274 274 275 274 272 271 271 270 270 270 269 269 270 270 270 270 270 270 270 270 270 270
258 257 257 256 256 256 256 256 257 258 258 259 259 259 260 261 261 261 262 262 262 262 262 262 262 263 263 264 264 265 265 264 264 264 265 265 265 265 265 265 265 265 266 268 271 272 273 274 274 275 274 273 272 271 271 270 270 269 269 270 270 270 270 270 270 270 270 269 269
Wind_Speed
6 6 5 5 6 5 5 5 5 5 5 6 6 6 6 6 6 6 6 6 6 7 7 7 7 8 9 10 11 11 11 12 12 13 13 13 12 12 12 11 11 11 11 12 11 11 10 10 9 8 8 7 8 8 7 7 8 8 9 9 9 9 10 11 10 11 11 12 10
6 6 6 6 6 6 5 5 5 6 6 6 6 6 6 6 6 6 6 6 6 7 7 7 8 8 9 11 11 11 11 12 13 13 13 12 12 12 11 11 11 11 12 12 11 10 9 10 10 9 8 7 7 8 8 7 8 9 10 10 9 9 9 10 10 11 11 11 11
5 5 5 5 6 6 5 5 5 6 6 6 5 5 5 5 5 6 6 6 7 7 7 7 8 9 10 10 10 10 11 12 13 13 12 11 12 12 12 11 12 12 12 11 11 10 10 10 9 9 8 7 8 8 8 8 8 9 10 11 9 8 8 8 10 10 10 9 10
5 5 5 5 6 6 6 5 6 6 6 6 5 5 5 5 5 5 6 7 7 7 7 7 8 9 9 10 11 11 12 12 13 12 12 11 12 12 12 12 12 12 11 11 11 11 10 11 9 8 8 8 8 8 8 8 9 9 9 9 9 9 9 8 9 9 8 8 10
5 5 5 5 6 6 5 5 6 6 6 5 5 5 5 5 5 6 6 7 7 7 8 9 8 9 9 10 12 12 12 12 13 12 11 11 12 12 12 12 12 12 11 11 11 11 11 11 9 7 7 8 7 7 8 9 10 10 9 8 8 9 9 9 8 8 8 9 9
5 5 5 5 5 5 5 5 6 6 6 5 5 6 6 6 6 6 7 7 7 8 9 9 9 9 10 11 12 12 12 11 11 11 11 11 11 12 12 12 12 11 11 11 11 11 11 11 8 7 7 7 7 8 9 11 11 10 10 9 9 9 9 9 9 9 9 10 11
5 5 5 5 5 5 5 6 6 6 6 5 6 6 7 7 7 7 8 8 7 8 8 9 9 10 10 11 11 11 11 11 11 11 11 11 11 12 12 12 12 12 11 11 11 11 11 10 8 8 8 8 7 9 10 11 11 11 11 11 9 9 9 10 9 9 10 13 15
4 5 5 5 5 6 6 7 6 6 6 5 6 7 8 8 8 8 8 8 7 7 8 8 9 10 11 11 11 11 11 11 11 11 11 11 12 12 12 12 12 12 11 11 11 12 11 10 8 8 8 8 8 9 10 12 13 13 12 12 10 9 9 9 9 10 12 15 16
4 5 5 5 5 6 6 7 6 6 6 6 6 7 8 8 9 9 8 8 8 8 8 8 10 11 11 11 11 11 11 11 11 11 11 12 12 13 12 12 12 12 11 11 12 13 12 10 8 8 8 8 9 10 11 13 14 14 13 12 11 11 11 11 12 13 14 15 16
5 5 5 5 5 6 6 6 6 6 6 6 7 7 8 9 9 8 8 7 8 8 9 9 10 11 11 11 11 11 11 11 11 11 12 12 12 13 12 12 12 12 12 12 12 12 12 10 9 9 10 10 11 12 13 13 14 14 13 11 12 13 14 13 14 15 15 15 16
5 5 5 5 5 6 6 6 6 6 6 6 7 7 8 8 8 8 8 7 8 9 9 9 10 11 11 10 10 11 11 10 11 11 12 12 12 12 12 12 12 13 14 14 12 11 10 10 10 11 12 12 12 12 13 14 14 15 14 13 14 15 16 16 15 15 14 15 16
5 5 5 5 6 6 6 6 5 5 6 6 7 7 7 7 8 8 8 8 9 9 9 9 10 10 10 10 10 11 11 11 11 12 12 12 12 12 12 12 13 14 14 14 12 11 10 11 12 13 14 14 11 11 12 14 15 15 15 15 15 16 16 17 16 15 14 14 16
4 5 5 5 6 6 6 6 5 5 5 6 7 7 7 7 8 8 8 9 9 9 9 9 10 10 10 10 10 11 11 11 11 11 11 12 12 12 12 12 13 14 14 13 12 12 11 12 13 14 15 14 12 12 13 15 15 15 16 17 17 17 17 18 17 16 16 16 16
4 5 5 5 6 6 6 6 5 5 6 7 7 7 7 7 8 8 8 9 9 9 9 9 9 9 10 11 11 11 11 11 11 12 12 12 12 12 12 13 14 14 13 12 12 13 13 13 14 14 15 15 14 14 14 15 15 15 16 17 17 18 18 18 18 17 17 17 17
4 5 5 5 6 5 5 6 5 5 6 7 7 7 7 7 8 8 8 9 9 9 9 9 9 9 10 11 11 11 11 11 12 12 12 13 13 13 13 13 14 14 14 13 13 13 14 14 15 15 15 15 15 16 16 15 16 16 16 17 18 18 18 18 18 18 17 18 17
4 5 5 5 5 5 5 5 5 5 6 7 7 7 7 7 7 8 9 9 9 9 9 10 10 10 10 11 11 11 11 11 11 12 13 13 13 13 14 14 14 14 15 15 14 14 14 14 14 14 15 15 16 16 16 16 16 17 17 17 18 18 18 18 18 18 18 18 18
5 5 5 5 6 6 6 6 5 6 6 7 7 7 7 7 7 8 9 9 9 9 10 11 10 10 10 10 10 11 11 11 11 12 12 13 13 14 14 14 14 15 15 15 15 15 15 14 14 14 14 15 15 16 16 17 17 17 17 18 18 18 18 18 18 18 18 18 18
5 5 5 5 6 6 6 6 6 6 7 7 7 7 7 7 8 8 9 9 9 10 11 11 11 10 10 11 10 10 10 11 11 12 12 12 13 14 14 14 14 15 15 15 15 15 16 16 15 15 14 15 15 16 16 17 17 17 17 17 17 17 17 17 17 17 17 17 18
5 5 5 6 6 6 6 7 7 7 7 7 7 7 8 8 9 9 9 9 10 11 11 12 11 11 10 11 11 11 11 11 11 11 12 12 13 13 14 14 14 14 15 15 15 15 16 16 16 15 15 15 16 16 16 17 16 17 17 17 17 17 17 17 17 17 16 17 17
5 5 5 5 6 6 6 7 7 7 7 7 7 8 9 9 9 9 10 10 11 11 11 12 11 11 11 11 11 11 11 10 10 11 11 12 12 13 14 14 14 14 15 15 15 15 15 15 16 16 16 17 17 17 17 17 16 16 16 16 16 16 17 17 16 16 16 16 17
4 5 5 5 5 6 6 6 7 7 7 7 8 8 9 9 9 10 10 11 11 11 12 12 11 12 12 12 12 11 11 9 10 10 11 11 12 13 13 13 14 14 14 14 14 15 15 15 16 16 17 17 17 17 17 16 16 17 17 16 16 16 16 16 16 16 16 16 16
4 4 4 5 5 6 6 7 7 7 7 7 8 8 9 9 10 10 10 11 11 11 11 11 11 11 12 12 12 11 10 9 10 10 11 11 11 12 12 13 13 14 14 14 14 14 15 16 16 17 17 16 16 17 17 17 17 17 17 17 16 16 16 16 15 16 16 16 17
4 4 4 4 5 6 7 7 7 7 7 7 8 9 9 10 10 10 10 10 11 11 11 11 11 11 11 11 11 11 11 10 10 11 11 11 11 12 12 12 13 14 14 13 13 14 15 15 16 16 16 15 16 17 17 17 17 17 17 17 16 16 16 16 16 16 16 16 16
4 4 4 4 5 6 6 6 7 7 7 8 8 9 9 10 10 10 11 11 11 11 11 10 10 11 11 10 10 10 11 11 12 12 12 11 12 12 12 12 13 13 12 11 13 16 17 16 16 15 15 15 15 16 16 17 16 16 16 16 17 17 17 17 17 17 17 17 16
4 5 5 5 6 6 6 6 7 7 7 8 8 9 10 10 10 11 11 11 11 11 11 11 11 10 10 9 9 10 10 11 12 13 13 12 12 12 12 12 12 11 11 12 18 23 24 22 20 17 15 15 15 15 15 15 15 15 15 16 17 18 18 18 17 17 17 17 16
4 5 5 6 6 6 6 6 6 7 7 8 9 9 10 10 10 11 11 11 11 11 11 11 10 10 10 9 9 10 10 10 11 12 13 13 13 13 13 12 11 11 11 15 22 26 27 28 26 23 20 16 15 15 14 13 13 14 15 17 17 17 18 18 17 17 17 17 17
4 5 5 6 6 6 6 6 6 6 7 8 9 10 10 10 10 11 11 11 11 11 11 10 10 10 10 9 10 11 11 11 11 11 12 12 14 14 14 13 12 11 13 19 24 27 28 28 29 27 24 19 17 15 13 12 12 14 15 16 16 17 17 18 18 18 18 18 18
4 4 5 6 6 6 6 6 6 7 8 8 9 10 10 11 11 11 11 11 11 11 10 8 8 8 8 8 10 11 11 11 11 11 11 12 13 14 15 14 12 13 17 23 26 28 28 28 28 29 27 24 18 15 13 12 12 13 14 14 15 16 17 17 17 18 18 19 18
4 5 5 6 6 6 6 6 6 7 8 9 9 10 11 11 11 11 11 11 11 11 9 8 8 7 8 9 10 11 11 11 11 11 12 13 14 14 15 15 14 16 20 26 27 28 28 28 28 29 29 27 19 14 11 10 11 12 13 13 14 15 16 16 16 17 18 18 19
4 5 6 6 6 6 6 6 6 7 8 8 9 10 11 11 11 11 12 12 11 10 10 9 9 9 10 11 11 11 11 11 11 11 13 14 15 15 16 16 15 17 20 26 27 28 28 29 29 29 29 29 22 15 11 10 11 12 13 13 14 16 17 17 18 19 19 18 19
5 5 6 6 6 6 6 6 7 7 8 9 10 10 11 11 11 11 11 11 10 10 10 10 10 11 11 11 11 11 11 11 11 12 13 14 15 16 16 16 16 17 20 26 27 28 28 29 29 29 29 29 22 15 11 10 12 12 13 14 15 17 18 17 18 19 19 20 20
5 5 6 6 6 6 6 6 7 8 9 9 10 10 11 11 11 11 11 10 10 11 11 10 11 11 12 12 11 12 12 12 12 12 13 14 15 16 16 16 16 17 21 26 28 29 29 29 29 29 29 29 22 16 12 11 12 13 14 15 16 18 18 17 17 18 20 20 19
5 5 6 6 6 6 7 7 7 8 9 9 10 10 11 11 11 10 10 10 10 10 10 11 11 12 12 12 12 12 12 12 13 14 14 15 16 16 17 16 14 17 22 27 28 29 29 29 29 29 30 29 21 15 12 13 12 12 13 14 16 17 18 19 18 18 19 19 18
5 6 6 6 6 7 7 7 8 8 9 9 10 10 10 10 11 11 10 10 9 9 8 9 10 10 10 11 11 12 12 12 13 14 15 15 16 16 17 15 13 16 23 28 29 29 28 28 29 30 29 28 19 14 12 14 13 14 14 15 16 17 17 18 18 18 18 18 17
5 6 6 6 6 7 7 7 8 9 9 10 10 10 10 10 10 10 11 11 10 9 8 8 9 9 9 10 10 11 12 13 13 14 14 15 15 16 17 16 15 18 24 28 28 28 28 28 29 30 29 24 16 13 13 14 14 15 16 17 17 17 18 17 17 16 16 16 16
5 6 6 6 7 7 7 8 9 9 9 10 10 10 10 10 9 9 10 11 10 10 9 10 10 10 10 10 10 10 11 13 14 14 14 15 15 16 17 17 16 19 23 27 27 28 28 28 29 30 27 21 14 12 13 13 13 14 16 17 17 18 18 17 16 16 15 15 15
5 6 6 6 7 7 8 8 9 9 10 10 10 10 10 10 10 9 9 9 9 10 10 10 11 11 11 11 11 11 11 13 14 14 14 15 15 16 17 17 17 18 21 25 26 27 28 28 29 29 26 19 14 13 13 12 12 13 15 16 17 17 17 15 15 15 15 15 16
5 5 6 6 7 7 8 8 9 9 10 10 9 9 9 9 9 9 9 8 8 9 10 10 11 11 12 12 12 12 13 13 13 14 14 15 15 16 17 17 17 17 18 22 26 27 28 28 29 29 26 19 15 14 13 12 13 13 14 15 15 16 16 14 14 14 15 16 19
5 5 6 6 7 8 8 8 9 9 9 10 9 9 9 9 8 9 9 8 8 9 10 10 11 11 12 12 13 13 13 13 12 13 13 14 15 16 17 17 16 15 17 21 25 27 28 28 29 29 27 20 16 13 12 12 13 14 15 14 14 15 15 14 14 13 14 16 20
5 5 6 6 7 7 8 9 9 9 9 9 9 9 9 9 9 9 10 8 8 8 9 10 11 12 12 12 13 13 13 13 12 12 13 14 15 16 16 15 14 14 16 20 24 27 28 28 28 29 27 20 16 13 12 12 13 14 15 14 14 14 15 15 14 13 14 15 18
5 5 6 6 7 7 8 9 9 8 8 7 8 8 8 8 8 9 9 8 9 9 9 9 11 12 12 12 12 12 13 13 13 13 13 14 15 15 15 14 13 13 14 17 23 26 27 28 28 28 27 22 17 14 12 12 13 15 16 16 15 15 14 15 14 13 13 15 15
Wind_Direction
8 4 0 356 354 350 345 342 345 345 342 336 331 328 326 324 323 325 330 334 333 331 328 325 324 325 327 330 331 331 331 330 330 329 328 328 328 330 331 331 332 332 332 332 332 331 330 331 328 324 320 318 318 319 319 320 322 326 331 334 331 328 326 323 320 319 319 317 314
6 3 0 358 354 349 343 341 343 342 339 332 327 324 322 321 324 327 330 333 332 328 324 321 323 324 325 327 329 330 330 329 328 328 328 328 329 330 330 331 331 332 332 331 331 331 330 331 328 325 321 319 320 321 321 323 328 331 332 333 329 325 322 319 318 317 316 314 315
3 1 360 358 354 349 344 341 340 337 332 327 323 320 320 321 326 328 330 331 328 324 322 321 322 323 324 326 328 329 329 327 327 327 327 328 328 330 330 330 330 330 330 330 330 330 330 331 328 324 321 321 322 322 322 326 331 332 330 329 326 323 320 317 317 316 315 314 315
0 359 358 355 351 347 343 340 335 331 328 323 320 318 320 324 328 329 328 326 324 323 322 321 321 322 324 326 328 328 327 326 326 326 326 327 328 328 329 329 329 329 329 329 329 330 330 331 327 324 321 321 321 321 324 328 332 330 327 325 322 320 318 315 315 315 314 313 313
356 357 356 351 346 343 340 337 332 328 325 321 320 321 324 327 329 329 327 325 323 321 320 320 321 322 324 326 326 326 325 325 326 326 326 326 326 327 328 328 328 328 328 329 330 330 331 331 327 323 321 321 321 323 326 329 329 326 324 321 319 317 315 313 312 312 311 310 310
350 350 350 346 342 341 338 335 329 325 321 318 320 323 327 329 330 328 326 323 319 318 318 320 322 323 325 326 325 324 324 324 326 326 326 325 326 326 327 327 327 327 328 329 330 331 331 330 326 323 322 322 321 323 326 328 326 323 320 318 316 314 312 312 311 310 308 307 306
345 346 345 343 341 340 338 333 327 323 320 319 322 325 327 329 328 326 323 319 319 320 322 323 325 326 326 326 324 324 324 324 325 325 325 325 325 325 326 326 326 327 328 329 329 330 331 329 325 324 323 324 322 324 325 326 323 320 317 315 314 312 311 309 308 307 305 303 302
343 343 343 341 341 339 336 331 327 324 323 323 325 326 327 328 326 325 323 321 322 323 324 325 325 326 325 325 324 323 323 324 324 325 326 324 324 324 325 325 326 327 328 328 329 330 330 328 325 324 324 323 322 322 323 322 319 317 315 313 311 309 308 307 305 303 301 300 299
341 340 340 340 340 338 334 329 327 325 324 322 324 327 328 328 327 326 325 324 323 324 324 324 324 325 324 323 322 323 323 324 324 324 324 324 324 324 325 326 326 327 327 328 328 329 328 327 325 324 323 322 321 319 319 318 316 314 313 310 308 307 305 303 301 299 298 297 296
339 339 339 341 339 336 332 329 326 324 322 321 325 327 329 329 327 326 324 323 323 325 325 325 325 324 324 323 323 323 324 324 323 323 323 323 323 324 325 325 326 326 327 328 328 328 327 325 324 323 322 320 318 317 316 315 314 312 311 308 306 305 303 300 299 297 296 294 292
338 338 340 341 338 335 332 331 327 324 323 324 327 328 329 328 326 324 323 324 326 326 325 325 325 324 323 323 323 323 323 323 322 322 322 322 323 323 324 324 324 325 326 327 328 327 326 324 322 321 320 319 317 315 314 313 311 309 307 304 303 302 300 298 297 295 293 291 290
337 339 341 341 338 336 334 332 328 326 325 327 329 329 328 326 324 324 325 328 327 325 325 325 325 324 323 322 322 322 322 321 321 320 320 321 321 322 322 322 323 324 326 326 326 326 324 323 321 320 319 318 316 314 312 311 309 306 304 302 300 299 298 296 295 293 290 289 289
338 341 342 342 339 337 335 333 329 327 328 329 330 329 327 325 325 326 328 329 327 326 325 325 324 323 323 322 322 321 321 320 320 320 320 320 320 321 321 322 323 324 325 325 325 324 323 321 321 320 319 318 315 312 310 308 306 304 302 300 299 297 295 294 293 292 290 289 289
342 344 345 342 340 338 336 335 332 330 330 330 329 328 327 325 327 329 330 329 327 325 324 324 324 323 322 321 320 319 319 318 319 319 319 319 320 320 321 322 323 324 324 324 324 323 322 321 321 319 318 316 313 310 307 305 302 300 299 298 297 295 294 293 293 292 292 292 292
345 347 345 342 341 340 338 336 333 331 330 329 328 328 327 327 328 329 329 327 325 324 324 324 323 322 321 320 319 318 318 317 318 318 319 320 320 321 321 322 323 323 323 323 323 322 322 321 320 318 316 314 310 308 305 302 299 297 295 294 294 293 293 293 294 294 295 295 296
347 346 345 343 342 340 338 335 332 330 329 327 327 327 327 327 328 328 328 326 325 324 324 323 321 320 319 319 318 318 317 317 318 319 320 321 321 321 322 322 323 323 323 323 322 322 321 321 319 316 314 311 307 304 301 299 296 294 293 292 292 292 293 294 295 296 297 298 299
348 346 344 342 341 339 336 333 331 329 327 325 326 326 327 327 327 327 327 326 325 324 323 321 320 318 318 318 318 318 317 318 319 320 320 320 321 321 322 323 323 323 323 323 322 322 321 320 318 315 311 307 304 301 298 296 295 293 292 292 292 293 294 296 298 299 300 300 300
347 345 343 341 339 337 334 331 330 327 325 324 325 326 327 327 327 326 325 325 324 323 321 319 318 317 316 317 317 318 317 317 318 318 318 319 320 321 322 323 323 323 323 323 322 321 321 319 316 313 308 304 300 297 296 295 294 293 293 294 295 296 297 298 299 300 301 301 301
345 343 341 339 337 334 331 330 327 326 324 323 325 326 327 327 326 325 324 324 324 322 320 317 316 316 316 316 316 316 316 315 316 316 317 318 320 321 322 322 323 323 323 323 322 321 319 317 314 310 305 301 298 296 295 294 294 295 296 298 299 300 300 301 301 301 301 302 302
343 341 338 336 333 331 329 327 325 323 323 324 326 327 327 326 326 325 324 323 322 320 318 316 316 316 316 315 315 315 315 315 315 316 317 319 321 321 322 322 323 323 323 322 321 320 318 315 310 306 302 299 297 296 296 296 297 299 300 302 302 302 302 303 303 303 304 304 304
341 338 335 332 330 328 325 323 322 321 323 325 327 327 327 326 325 324 323 321 319 318 317 316 316 316 316 316 315 315 315 315 317 318 319 320 321 321 322 322 323 323 323 322 320 318 315 311 306 303 300 298 298 299 300 301 302 303 304 304 304 304 305 306 306 307 307 307 306
337 334 331 329 327 324 322 320 320 321 324 327 328 327 326 325 324 322 320 318 317 317 317 316 316 316 316 315 314 314 315 316 318 319 319 320 320 321 322 323 323 323 323 322 319 315 311 307 303 301 300 300 301 303 304 305 305 305 305 305 306 307 309 310 311 311 310 308 307
332 330 329 326 324 322 320 319 320 323 325 328 328 327 326 324 322 320 318 317 316 316 316 316 316 315 314 312 312 314 316 318 319 319 320 320 320 322 323 324 324 324 323 321 318 314 310 306 304 303 303 304 306 307 307 307 306 306 307 309 311 313 314 315 314 312 310 308 307
330 329 327 324 322 320 319 319 321 324 328 329 328 327 325 323 321 320 318 317 315 315 315 315 314 313 311 311 313 316 319 320 321 321 321 322 322 324 325 326 325 324 322 319 316 314 313 311 310 309 309 310 310 309 308 307 307 308 311 315 317 318 317 316 314 312 309 307 306
329 327 325 322 320 319 318 320 323 326 328 329 328 326 324 322 321 319 318 317 316 315 315 314 313 312 312 314 317 320 321 321 322 322 323 323 325 326 326 326 325 323 320 316 314 314 315 315 316 315 315 314 312 310 308 307 309 313 317 320 320 319 317 315 312 310 308 306 305
327 324 322 319 318 318 318 320 323 326 328 329 328 326 324 322 320 319 317 316 316 316 315 315 314 315 318 320 322 323 323 322 322 323 324 325 326 327 327 326 324 321 318 315 315 316 317 318 318 318 318 316 314 312 310 311 316 320 322 322 320 318 315 313 312 310 308 307 305
324 322 319 317 317 316 316 318 323 328 331 330 328 326 323 321 320 318 317 316 316 315 315 315 315 318 321 323 324 324 324 323 323 324 324 325 326 326 326 324 322 319 316 315 316 317 318 319 319 320 320 318 315 315 316 320 324 325 324 321 318 315 313 312 311 310 309 308 306
322 320 318 318 317 316 316 320 328 332 332 331 327 324 321 320 319 318 316 315 315 316 316 316 318 321 323 325 325 324 323 323 324 325 325 325 325 324 324 322 321 318 316 316 317 318 318 319 320 321 321 320 318 319 323 327 327 326 322 318 315 313 311 310 310 310 309 309 307
320 319 319 319 316 316 319 326 331 333 332 329 325 323 321 319 318 317 316 316 317 319 320 320 322 323 325 324 323 323 323 324 325 325 325 324 323 323 322 321 319 316 316 317 317 318 319 320 321 321 322 322 323 326 331 332 327 323 319 315 313 312 311 310 309 309 309 308 308
320 321 319 317 316 317 321 329 332 333 331 327 324 322 320 318 317 317 317 317 318 318 318 319 321 323 323 322 323 323 324 325 325 325 324 323 322 321 320 319 318 316 316 317 317 318 320 321 322 322 323 325 327 330 333 330 323 318 315 312 311 310 309 308 308 308 308 308 308
322 321 319 316 316 318 323 330 333 332 330 326 323 321 319 318 317 316 316 315 314 314 315 317 319 320 320 321 322 323 324 324 325 324 323 322 321 320 319 318 316 315 315 316 318 319 321 322 323 323 324 327 331 334 333 326 319 315 312 310 309 308 308 307 308 308 308 308 309
322 320 318 317 317 320 325 331 332 331 327 324 321 319 317 315 313 312 311 312 312 314 317 320 321 321 321 323 323 324 324 324 324 323 322 320 319 318 318 317 316 316 316 317 319 321 322 323 323 324 326 330 333 334 330 321 315 311 309 308 307 307 307 307 307 308 308 309 310
322 320 319 317 318 322 327 331 331 328 325 321 318 316 314 312 310 310 311 312 314 317 319 321 322 323 323 324 324 324 324 323 321 320 319 319 318 317 317 317 316 316 317 318 320 321 323 323 324 326 328 332 334 332 326 318 313 310 309 309 308 307 307 306 306 307 309 310 311
323 321 319 318 321 324 327 329 328 325 322 319 316 313 312 311 311 312 313 315 316 317 318 319 320 320 320 321 322 322 321 320 319 318 318 318 317 316 316 317 315 316 318 319 321 322 323 324 325 327 329 333 333 329 321 316 313 312 311 310 309 308 308 307 308 308 310 312 314
324 322 321 320 323 326 327 327 325 323 320 317 314 312 311 310 312 313 314 315 315 316 316 316 316 317 317 318 318 318 318 318 318 317 317 317 316 316 316 315 313 315 318 320 321 322 324 325 327 328 330 333 332 326 320 317 315 314 313 312 311 311 311 310 311 312 314 315 317
325 324 323 323 325 327 327 326 323 321 318 315 313 312 312 312 312 312 312 313 314 315 316 317 318 318 319 319 319 318 318 317 317 317 317 317 316 316 315 314 313 315 318 320 322 323 325 327 328 329 331 333 330 325 320 318 317 316 315 314 314 314 314 315 316 317 318 319 319
326 326 326 326 326 325 324 323 320 317 315 312 311 311 311 313 312 312 312 313 315 316 317 319 319 319 319 318 318 317 316 316 316 316 316 316 316 315 314 313 312 314 317 320 322 325 327 328 329 330 332 332 329 325 321 320 318 318 317 317 316 317 318 319 320 320 320 321 322
327 329 330 329 325 322 320 319 316 313 310 308 308 309 310 312 312 312 312 314 316 317 318 318 318 317 316 315 315 314 314 315 315 316 316 316 315 314 313 312 312 313 316 320 323 326 328 329 329 331 332 332 329 326 323 321 321 320 319 319 319 320 322 323 323 323 322 322 324
329 332 332 328 322 318 315 313 309 306 305 305 306 308 310 311 311 311 312 314 314 314 314 314 314 313 313 313 313 314 314 315 316 315 315 314 313 311 311 311 311 312 315 321 325 327 328 329 330 331 332 331 329 327 324 322 321 321 320 321 321 323 325 326 326 324 323 323 325
331 332 329 322 316 312 308 305 302 300 301 303 307 309 310 310 308 309 310 311 311 311 310 310 309 310 310 312 313 314 315 317 317 316 314 313 311 310 310 310 310 311 315 321 325 327 328 329 330 332 333 331 330 328 325 323 322 322 323 324 325 327 327 328 327 326 325 325 326
330 327 321 314 308 304 301 299 297 297 299 304 306 307 307 307 306 308 309 309 309 309 308 308 308 308 309 311 312 314 316 318 318 316 314 312 311 310 310 310 310 312 316 321 325 327 329 330 331 332 333 332 332 330 327 324 323 323 325 327 329 329 329 328 327 327 327 327 326